Time,TemperatureF,DewpointF,PressureIn,WindDirection,WindDirectionDegrees,WindSpeedMPH,WindSpeedGustMPH,Humidity,HourlyPrecipIn,Conditions,Clouds,dailyrainin,SoftwareType,DateUTC
2013-12-19 00:01:00,13.6,6.9,29.94,West,276,0.0,0.0,74,0.00,,---,0.00,VWS V15.00,2013-12-19 05:01:00,
2013-12-19 00:06:00,14.2,8.0,29.94,WSW,239,0.0,3.1,76,0.00,,---,0.00,VWS V15.00,2013-12-19 05:06:00,
2013-12-19 00:11:00,14.5,8.7,29.94,SW,219,0.0,0.0,77,0.00,,---,0.00,VWS V15.00,2013-12-19 05:11:00,
2013-12-19 00:16:00,14.9,9.0,29.94,WSW,238,0.0,0.0,77,0.00,,---,0.00,VWS V15.00,2013-12-19 05:16:00,
2013-12-19 00:21:00,15.3,9.4,29.94,WSW,241,0.0,0.0,77,0.00,,---,0.00,VWS V15.00,2013-12-19 05:21:00,
2013-12-19 00:26:00,15.8,9.9,29.94,SW,235,2.7,3.6,77,0.00,,---,0.00,VWS V15.00,2013-12-19 05:26:00,
2013-12-19 00:31:00,16.0,10.1,29.94,SW,235,0.0,0.0,77,0.00,,---,0.00,VWS V15.00,2013-12-19 05:31:00,
2013-12-19 00:36:00,16.2,10.2,29.94,WSW,240,2.7,3.1,77,0.00,,---,0.00,VWS V15.00,2013-12-19 05:36:00,
2013-12-19 00:41:00,16.7,11.1,29.94,WSW,240,0.0,0.0,78,0.00,,---,0.00,VWS V15.00,2013-12-19 05:41:00,
2013-12-19 00:46:00,17.1,11.4,29.94,WSW,237,4.0,4.0,78,0.00,,---,0.00,VWS V15.00,2013-12-19 05:46:00,
2013-12-19 00:51:00,17.4,11.8,29.94,WSW,237,0.0,0.0,78,0.00,,---,0.00,VWS V15.00,2013-12-19 05:51:00,
2013-12-19 00:56:00,17.6,11.9,29.94,WSW,242,0.0,3.6,78,0.00,,---,0.00,VWS V15.00,2013-12-19 05:56:00,
2013-12-19 01:01:00,17.8,12.1,29.97,West,262,2.2,4.9,78,0.00,,---,0.00,VWS V15.00,2013-12-19 06:01:00,
2013-12-19 01:06:00,18.0,12.3,29.97,WSW,253,0.0,0.0,78,0.00,,---,0.00,VWS V15.00,2013-12-19 06:06:00,
2013-12-19 01:11:00,18.1,12.4,29.97,WSW,253,0.0,0.0,78,0.00,,---,0.00,VWS V15.00,2013-12-19 06:11:00,
2013-12-19 01:16:00,18.1,12.4,29.94,WSW,253,0.0,2.2,78,0.00,,---,0.00,VWS V15.00,2013-12-19 06:16:00,
2013-12-19 01:21:00,18.3,12.9,29.94,WSW,253,0.0,0.0,79,0.00,,---,0.00,VWS V15.00,2013-12-19 06:21:00,
2013-12-19 01:26:00,18.3,12.9,29.94,WSW,253,0.0,0.0,79,0.00,,---,0.00,VWS V15.00,2013-12-19 06:26:00,
2013-12-19 01:31:00,18.3,12.9,29.94,WSW,253,0.0,0.0,79,0.00,,---,0.00,VWS V15.00,2013-12-19 06:31:00,
2013-12-19 01:36:00,18.3,12.9,29.94,WSW,253,0.0,0.0,79,0.00,,---,0.00,VWS V15.00,2013-12-19 06:36:00,
2013-12-19 01:41:00,18.3,12.9,29.94,WSW,253,0.0,2.2,79,0.00,,---,0.00,VWS V15.00,2013-12-19 06:41:00,
2013-12-19 01:46:00,18.3,12.9,29.97,SW,225,5.4,5.4,79,0.00,,---,0.00,VWS V15.00,2013-12-19 06:46:00,
2013-12-19 01:51:00,18.7,13.3,29.97,SW,226,0.0,0.0,79,0.00,,---,0.00,VWS V15.00,2013-12-19 06:51:00,
2013-12-19 01:56:00,18.9,13.4,29.97,SW,226,0.0,0.0,79,0.00,,---,0.00,VWS V15.00,2013-12-19 06:56:00,
2013-12-19 02:00:00,19.0,13.9,29.97,SW,224,0.0,0.0,80,0.00,,---,0.00,VWS V15.00,2013-12-19 07:00:00,
2013-12-19 02:05:00,19.4,14.2,29.97,SW,224,0.0,0.0,80,0.00,,---,0.00,VWS V15.00,2013-12-19 07:05:00,
2013-12-19 02:10:00,19.6,14.4,29.97,SW,224,0.0,0.0,80,0.00,,---,0.00,VWS V15.00,2013-12-19 07:10:00,
2013-12-19 02:15:00,19.9,14.8,29.94,SW,224,0.0,0.0,80,0.00,,---,0.00,VWS V15.00,2013-12-19 07:15:00,
2013-12-19 02:20:00,20.1,14.9,29.94,SW,225,0.0,2.2,80,0.00,,---,0.00,VWS V15.00,2013-12-19 07:20:00,
2013-12-19 02:25:00,20.3,15.1,29.94,SW,223,0.0,2.2,80,0.00,,---,0.00,VWS V15.00,2013-12-19 07:25:00,
2013-12-19 02:30:00,20.3,15.1,29.97,SW,224,0.0,0.0,80,0.00,,---,0.00,VWS V15.00,2013-12-19 07:30:00,
2013-12-19 02:35:00,20.3,15.1,29.97,SW,219,0.0,0.0,80,0.00,,---,0.00,VWS V15.00,2013-12-19 07:35:00,
2013-12-19 02:40:00,20.5,15.3,29.97,SW,224,3.1,3.1,80,0.00,,---,0.00,VWS V15.00,2013-12-19 07:40:00,
2013-12-19 02:45:00,20.5,15.3,29.97,SW,230,0.0,0.0,80,0.00,,---,0.00,VWS V15.00,2013-12-19 07:45:00,
2013-12-19 02:50:00,20.8,15.9,29.97,SW,214,0.0,0.0,81,0.00,,---,0.00,VWS V15.00,2013-12-19 07:50:00,
2013-12-19 02:55:00,21.0,16.1,29.97,SW,226,3.1,5.4,81,0.00,,---,0.00,VWS V15.00,2013-12-19 07:55:00,
2013-12-19 03:00:00,21.2,16.3,29.97,SW,224,3.1,3.1,81,0.00,,---,0.00,VWS V15.00,2013-12-19 08:00:00,
2013-12-19 03:05:00,21.6,16.6,29.97,SW,229,5.8,8.3,81,0.00,,---,0.00,VWS V15.00,2013-12-19 08:05:00,
2013-12-19 03:10:00,21.9,17.0,29.97,SW,217,4.0,4.0,81,0.00,,---,0.00,VWS V15.00,2013-12-19 08:10:00,
2013-12-19 03:15:00,21.9,17.0,29.97,WSW,242,0.0,2.7,81,0.00,,---,0.00,VWS V15.00,2013-12-19 08:15:00,
2013-12-19 03:20:00,21.9,17.0,29.97,WSW,238,2.7,3.1,81,0.00,,---,0.00,VWS V15.00,2013-12-19 08:20:00,
2013-12-19 03:25:00,22.1,17.2,29.97,SW,236,0.0,0.0,81,0.00,,---,0.00,VWS V15.00,2013-12-19 08:25:00,
2013-12-19 03:30:00,22.3,17.4,29.97,SSW,210,2.7,4.0,81,0.00,,---,0.00,VWS V15.00,2013-12-19 08:30:00,
2013-12-19 03:35:00,22.3,17.4,29.97,SW,214,6.3,8.1,81,0.00,,---,0.00,VWS V15.00,2013-12-19 08:35:00,
2013-12-19 03:40:00,22.6,17.7,29.97,SW,227,2.7,5.4,81,0.00,,---,0.00,VWS V15.00,2013-12-19 08:40:00,
2013-12-19 03:45:00,22.8,17.9,29.97,SW,223,5.4,6.3,81,0.00,,---,0.00,VWS V15.00,2013-12-19 08:45:00,
2013-12-19 03:50:00,23.0,18.0,29.97,SW,229,4.0,6.3,81,0.00,,---,0.00,VWS V15.00,2013-12-19 08:50:00,
2013-12-19 03:55:00,23.2,17.9,29.97,SW,226,5.4,5.4,80,0.00,,---,0.00,VWS V15.00,2013-12-19 08:55:00,
2013-12-19 04:00:00,23.2,17.9,29.97,WSW,256,3.1,3.6,80,0.00,,---,0.00,VWS V15.00,2013-12-19 09:00:00,
2013-12-19 04:05:00,23.2,17.6,29.97,SW,221,4.0,4.0,79,0.00,,---,0.00,VWS V15.00,2013-12-19 09:05:00,
2013-12-19 04:10:00,23.2,17.6,29.97,SW,220,3.6,3.6,79,0.00,,---,0.00,VWS V15.00,2013-12-19 09:10:00,
2013-12-19 04:15:00,23.0,17.5,29.97,WSW,256,0.0,3.6,79,0.00,,---,0.00,VWS V15.00,2013-12-19 09:15:00,
2013-12-19 04:20:00,22.8,17.0,29.97,SSW,207,0.0,0.0,78,0.00,,---,0.00,VWS V15.00,2013-12-19 09:20:00,
2013-12-19 04:25:00,22.8,17.0,29.97,SW,215,4.0,4.0,78,0.00,,---,0.00,VWS V15.00,2013-12-19 09:25:00,
2013-12-19 04:30:00,22.6,16.8,29.97,SW,214,0.0,0.0,78,0.00,,---,0.00,VWS V15.00,2013-12-19 09:30:00,
2013-12-19 04:35:00,22.5,16.6,29.97,SW,214,3.1,3.1,78,0.00,,---,0.00,VWS V15.00,2013-12-19 09:35:00,
2013-12-19 04:40:00,22.3,16.5,29.97,SW,216,3.1,3.1,78,0.00,,---,0.00,VWS V15.00,2013-12-19 09:40:00,
2013-12-19 04:45:00,22.1,16.3,29.97,SW,216,2.7,2.7,78,0.00,,---,0.00,VWS V15.00,2013-12-19 09:45:00,
2013-12-19 04:50:00,22.1,16.3,29.97,SW,217,4.0,4.0,78,0.00,,---,0.00,VWS V15.00,2013-12-19 09:50:00,
2013-12-19 04:55:00,21.9,16.1,29.97,SW,226,0.0,2.2,78,0.00,,---,0.00,VWS V15.00,2013-12-19 09:55:00,
2013-12-19 05:00:00,21.9,16.1,29.97,SW,225,2.2,2.7,78,0.00,,---,0.00,VWS V15.00,2013-12-19 10:00:00,
2013-12-19 05:05:00,21.9,16.1,29.97,SW,225,3.6,3.6,78,0.00,,---,0.00,VWS V15.00,2013-12-19 10:05:00,
2013-12-19 05:10:00,21.9,16.1,29.97,SW,214,4.0,4.0,78,0.00,,---,0.00,VWS V15.00,2013-12-19 10:10:00,
2013-12-19 05:15:00,21.9,16.1,29.97,SW,224,4.9,5.4,78,0.00,,---,0.00,VWS V15.00,2013-12-19 10:15:00,
2013-12-19 05:20:00,21.9,16.1,29.97,SW,215,3.1,4.0,78,0.00,,---,0.00,VWS V15.00,2013-12-19 10:20:00,
2013-12-19 05:25:00,21.7,15.9,29.97,SW,236,2.7,5.8,78,0.00,,---,0.00,VWS V15.00,2013-12-19 10:25:00,
2013-12-19 05:30:00,21.6,15.8,29.97,SW,231,5.4,5.4,78,0.00,,---,0.00,VWS V15.00,2013-12-19 10:30:00,
2013-12-19 05:35:00,21.4,15.6,29.97,SW,217,3.6,3.6,78,0.00,,---,0.00,VWS V15.00,2013-12-19 10:35:00,
2013-12-19 05:40:00,21.2,15.4,29.97,SW,223,4.0,4.0,78,0.00,,---,0.00,VWS V15.00,2013-12-19 10:40:00,
2013-12-19 05:45:00,21.2,15.4,29.97,SW,233,2.7,3.1,78,0.00,,---,0.00,VWS V15.00,2013-12-19 10:45:00,
2013-12-19 05:50:00,21.2,15.4,29.97,SW,218,6.3,6.3,78,0.00,,---,0.00,VWS V15.00,2013-12-19 10:50:00,
2013-12-19 05:55:00,21.2,15.7,29.97,West,262,3.6,3.6,79,0.00,,---,0.00,VWS V15.00,2013-12-19 10:55:00,
2013-12-19 06:01:00,21.2,15.7,29.97,SW,217,4.0,5.8,79,0.00,,---,0.00,VWS V15.00,2013-12-19 11:01:00,
2013-12-19 06:06:00,21.2,15.7,29.97,SW,224,2.7,2.7,79,0.00,,---,0.00,VWS V15.00,2013-12-19 11:06:00,
2013-12-19 06:11:00,21.0,15.2,29.97,SW,225,3.1,3.1,78,0.00,,---,0.00,VWS V15.00,2013-12-19 11:11:00,
2013-12-19 06:16:00,20.8,15.1,29.97,SW,219,4.0,4.0,78,0.00,,---,0.00,VWS V15.00,2013-12-19 11:16:00,
2013-12-19 06:21:00,20.7,14.9,29.97,SW,231,2.7,5.4,78,0.00,,---,0.00,VWS V15.00,2013-12-19 11:21:00,
2013-12-19 06:26:00,20.3,14.6,29.97,SW,220,4.0,4.0,78,0.00,,---,0.00,VWS V15.00,2013-12-19 11:26:00,
2013-12-19 06:31:00,20.1,14.4,30.00,SW,217,3.1,3.1,78,0.00,,---,0.00,VWS V15.00,2013-12-19 11:31:00,
2013-12-19 06:36:00,19.8,14.0,30.00,SW,214,0.0,0.0,78,0.00,,---,0.00,VWS V15.00,2013-12-19 11:36:00,
2013-12-19 06:41:00,19.8,14.0,30.00,SSW,195,3.1,4.9,78,0.00,,---,0.00,VWS V15.00,2013-12-19 11:41:00,
2013-12-19 06:46:00,19.4,13.7,29.97,SSW,210,3.1,3.6,78,0.00,,---,0.00,VWS V15.00,2013-12-19 11:46:00,
2013-12-19 06:51:00,19.2,13.5,29.97,SW,216,0.0,3.6,78,0.00,,---,0.00,VWS V15.00,2013-12-19 11:51:00,
2013-12-19 06:56:00,19.0,13.3,29.97,SW,216,0.0,2.7,78,0.00,,---,0.00,VWS V15.00,2013-12-19 11:56:00,
2013-12-19 07:00:00,19.2,13.8,30.00,SW,215,3.6,4.0,79,0.00,,---,0.00,VWS V15.00,2013-12-19 12:00:00,
2013-12-19 07:05:00,19.0,13.3,30.00,SW,216,3.1,4.0,78,0.00,,---,0.00,VWS V15.00,2013-12-19 12:05:00,
2013-12-19 07:10:00,18.9,13.1,30.00,SSW,209,2.7,3.6,78,0.00,,---,0.00,VWS V15.00,2013-12-19 12:10:00,
2013-12-19 07:15:00,18.5,12.8,30.00,SSW,210,3.1,4.9,78,0.00,,---,0.00,VWS V15.00,2013-12-19 12:15:00,
2013-12-19 07:20:00,18.5,13.1,30.00,SSW,213,2.7,4.0,79,0.00,,---,0.00,VWS V15.00,2013-12-19 12:20:00,
2013-12-19 07:25:00,18.7,13.3,30.00,SW,214,3.1,5.8,79,0.00,,---,0.00,VWS V15.00,2013-12-19 12:25:00,
2013-12-19 07:30:00,18.9,13.4,30.00,SW,214,2.2,2.7,79,0.00,,---,0.00,VWS V15.00,2013-12-19 12:30:00,
2013-12-19 07:35:00,18.9,13.4,30.00,SW,214,0.0,2.7,79,0.00,,---,0.00,VWS V15.00,2013-12-19 12:35:00,
2013-12-19 07:40:00,19.0,13.9,30.00,SW,214,0.0,0.0,80,0.00,,---,0.00,VWS V15.00,2013-12-19 12:40:00,
2013-12-19 07:45:00,19.2,14.1,30.00,SW,214,0.0,0.0,80,0.00,,---,0.00,VWS V15.00,2013-12-19 12:45:00,
2013-12-19 07:50:00,19.6,14.4,30.00,SW,214,2.7,3.6,80,0.00,,---,0.00,VWS V15.00,2013-12-19 12:50:00,
2013-12-19 07:55:00,20.1,15.2,30.00,SW,214,0.0,0.0,81,0.00,,---,0.00,VWS V15.00,2013-12-19 12:55:00,
2013-12-19 08:00:00,20.5,15.6,30.00,SW,214,3.6,3.6,81,0.00,,---,0.00,VWS V15.00,2013-12-19 13:00:00,
2013-12-19 08:05:00,20.7,15.8,30.00,SW,214,0.0,0.0,81,0.00,,---,0.00,VWS V15.00,2013-12-19 13:05:00,
2013-12-19 08:10:00,20.8,15.9,30.00,SW,214,0.0,0.0,81,0.00,,---,0.00,VWS V15.00,2013-12-19 13:10:00,
2013-12-19 08:15:00,21.0,16.4,30.00,SW,214,0.0,0.0,82,0.00,,---,0.00,VWS V15.00,2013-12-19 13:15:00,
2013-12-19 08:20:00,21.2,16.6,30.00,SW,214,0.0,0.0,82,0.00,,---,0.00,VWS V15.00,2013-12-19 13:20:00,
2013-12-19 08:25:00,21.4,16.8,30.00,SW,214,0.0,0.0,82,0.00,,---,0.00,VWS V15.00,2013-12-19 13:25:00,
2013-12-19 08:30:00,21.9,17.6,30.00,SW,214,0.0,0.0,83,0.00,,---,0.00,VWS V15.00,2013-12-19 13:30:00,
2013-12-19 08:35:00,21.9,17.6,30.00,SW,214,0.0,0.0,83,0.00,,---,0.00,VWS V15.00,2013-12-19 13:35:00,
2013-12-19 08:40:00,22.3,17.9,30.00,SW,214,0.0,0.0,83,0.00,,---,0.00,VWS V15.00,2013-12-19 13:40:00,
2013-12-19 08:45:00,22.6,18.3,30.00,SW,214,0.0,0.0,83,0.00,,---,0.00,VWS V15.00,2013-12-19 13:45:00,
2013-12-19 08:50:00,22.6,18.3,30.00,SW,214,0.0,0.0,83,0.00,,---,0.00,VWS V15.00,2013-12-19 13:50:00,
2013-12-19 08:55:00,22.6,18.3,30.00,SW,214,0.0,0.0,83,0.00,,---,0.00,VWS V15.00,2013-12-19 13:55:00,
2013-12-19 09:00:00,22.6,18.3,30.00,SW,214,0.0,0.0,83,0.00,,---,0.00,VWS V15.00,2013-12-19 14:00:00,
2013-12-19 09:05:00,22.6,18.3,30.00,SW,214,0.0,0.0,83,0.00,,---,0.00,VWS V15.00,2013-12-19 14:05:00,
2013-12-19 09:11:00,22.6,18.0,30.00,SW,214,0.0,0.0,82,0.00,,---,0.00,VWS V15.00,2013-12-19 14:11:00,
2013-12-19 09:16:00,23.0,18.6,30.00,SW,214,0.0,0.0,83,0.00,,---,0.00,VWS V15.00,2013-12-19 14:16:00,
2013-12-19 09:21:00,23.4,19.0,30.00,SW,214,0.0,0.0,83,0.00,,---,0.00,VWS V15.00,2013-12-19 14:21:00,
2013-12-19 09:26:00,23.7,19.3,30.00,SW,214,0.0,0.0,83,0.00,,---,0.00,VWS V15.00,2013-12-19 14:26:00,
2013-12-19 09:31:00,24.1,19.7,30.00,SW,214,0.0,0.0,83,0.00,,---,0.00,VWS V15.00,2013-12-19 14:31:00,
2013-12-19 09:36:00,24.4,19.7,30.00,SW,214,3.1,3.1,82,0.00,,---,0.00,VWS V15.00,2013-12-19 14:36:00,
2013-12-19 09:41:00,24.8,20.1,30.00,SSW,210,4.9,5.4,82,0.00,,---,0.00,VWS V15.00,2013-12-19 14:41:00,
2013-12-19 09:46:00,25.2,20.2,30.00,SW,218,2.7,3.6,81,0.00,,---,0.00,VWS V15.00,2013-12-19 14:46:00,
2013-12-19 09:51:00,25.5,20.2,30.00,SSW,212,4.9,6.3,80,0.00,,---,0.00,VWS V15.00,2013-12-19 14:51:00,
2013-12-19 09:56:00,25.7,20.1,30.00,SW,216,2.7,4.0,79,0.00,,---,0.00,VWS V15.00,2013-12-19 14:56:00,
2013-12-19 10:01:00,26.1,20.1,30.00,SW,214,4.0,4.9,78,0.00,,---,0.00,VWS V15.00,2013-12-19 15:01:00,
2013-12-19 10:06:00,26.1,19.9,30.00,SSW,209,3.1,3.6,77,0.00,,---,0.00,VWS V15.00,2013-12-19 15:06:00,
2013-12-19 10:11:00,26.1,19.2,30.00,SSW,208,3.1,4.0,75,0.00,,---,0.00,VWS V15.00,2013-12-19 15:11:00,
2013-12-19 10:16:00,26.2,19.4,30.00,SSW,206,0.0,0.0,75,0.00,,---,0.00,VWS V15.00,2013-12-19 15:16:00,
2013-12-19 10:20:00,26.4,19.3,30.00,SSW,206,3.6,3.6,74,0.00,,---,0.00,VWS V15.00,2013-12-19 15:20:00,
2013-12-19 10:25:00,26.6,18.8,30.00,SW,218,5.8,5.8,72,0.00,,---,0.00,VWS V15.00,2013-12-19 15:25:00,
2013-12-19 10:30:00,26.8,18.6,29.97,SSW,211,4.0,4.9,71,0.00,,---,0.00,VWS V15.00,2013-12-19 15:30:00,
2013-12-19 10:35:00,27.0,18.5,29.97,SW,216,3.6,4.0,70,0.00,,---,0.00,VWS V15.00,2013-12-19 15:35:00,
2013-12-19 10:40:00,27.0,18.5,29.97,SSW,207,4.0,6.3,70,0.00,,---,0.00,VWS V15.00,2013-12-19 15:40:00,
2013-12-19 10:45:00,27.3,18.5,29.97,SSW,210,5.4,5.8,69,0.00,,---,0.00,VWS V15.00,2013-12-19 15:45:00,
2013-12-19 10:50:00,27.5,18.7,29.97,SW,226,5.4,5.4,69,0.00,,---,0.00,VWS V15.00,2013-12-19 15:50:00,
2013-12-19 10:55:00,27.7,18.5,29.97,SW,226,3.6,3.6,68,0.00,,---,0.00,VWS V15.00,2013-12-19 15:55:00,
2013-12-19 11:01:00,27.9,18.7,29.97,SSW,208,2.2,4.9,68,0.00,,---,0.00,VWS V15.00,2013-12-19 16:01:00,
2013-12-19 11:06:00,28.2,18.7,29.97,SSW,213,2.7,4.0,67,0.00,,---,0.00,VWS V15.00,2013-12-19 16:06:00,
2013-12-19 11:11:00,28.4,18.9,29.97,SSW,213,0.0,0.0,67,0.00,,---,0.00,VWS V15.00,2013-12-19 16:11:00,
2013-12-19 11:16:00,28.8,18.9,29.94,SSW,213,0.0,0.0,66,0.00,,---,0.00,VWS V15.00,2013-12-19 16:16:00,
2013-12-19 11:21:00,29.1,19.2,29.94,SSW,213,0.0,0.0,66,0.00,,---,0.00,VWS V15.00,2013-12-19 16:21:00,
2013-12-19 11:26:00,29.3,19.0,29.94,SSW,213,0.0,0.0,65,0.00,,---,0.00,VWS V15.00,2013-12-19 16:26:00,
2013-12-19 11:31:00,29.5,18.8,29.94,SSW,213,0.0,0.0,64,0.00,,---,0.00,VWS V15.00,2013-12-19 16:31:00,
2013-12-19 11:36:00,29.8,19.2,29.94,SSW,213,0.0,0.0,64,0.00,,---,0.00,VWS V15.00,2013-12-19 16:36:00,
2013-12-19 11:41:00,30.2,19.1,29.94,SSW,213,0.0,0.0,63,0.00,,---,0.00,VWS V15.00,2013-12-19 16:41:00,
2013-12-19 11:45:00,30.4,19.3,29.94,SSW,213,0.0,0.0,63,0.00,,---,0.00,VWS V15.00,2013-12-19 16:45:00,
2013-12-19 11:50:00,30.6,19.1,29.94,SSW,213,0.0,4.0,62,0.00,,---,0.00,VWS V15.00,2013-12-19 16:50:00,
2013-12-19 11:55:00,30.7,18.5,29.94,SSW,213,0.0,0.0,60,0.00,,---,0.00,VWS V15.00,2013-12-19 16:55:00,
2013-12-19 12:00:00,30.7,18.5,29.94,SSW,200,3.1,4.0,60,0.00,,---,0.00,VWS V15.00,2013-12-19 17:00:00,
2013-12-19 12:05:00,30.9,18.3,29.94,SSW,200,2.7,3.1,59,0.00,,---,0.00,VWS V15.00,2013-12-19 17:05:00,
2013-12-19 12:10:00,30.9,18.3,29.94,SSW,200,0.0,0.0,59,0.00,,---,0.00,VWS V15.00,2013-12-19 17:10:00,
2013-12-19 12:15:00,31.1,18.5,29.91,SSW,200,0.0,0.0,59,0.00,,---,0.00,VWS V15.00,2013-12-19 17:15:00,
2013-12-19 12:20:00,31.3,18.6,29.91,SSW,200,0.0,0.0,59,0.00,,---,0.00,VWS V15.00,2013-12-19 17:20:00,
2013-12-19 12:25:00,31.3,18.2,29.91,SSW,200,0.0,0.0,58,0.00,,---,0.00,VWS V15.00,2013-12-19 17:25:00,
2013-12-19 12:30:00,31.5,18.4,29.91,SSW,200,0.0,0.0,58,0.00,,---,0.00,VWS V15.00,2013-12-19 17:30:00,
2013-12-19 12:35:00,31.6,18.6,29.91,SSW,201,4.0,4.9,58,0.00,,---,0.00,VWS V15.00,2013-12-19 17:35:00,
2013-12-19 12:40:00,31.5,18.4,29.91,SSW,201,0.0,0.0,58,0.00,,---,0.00,VWS V15.00,2013-12-19 17:40:00,
2013-12-19 12:45:00,31.6,18.6,29.91,SSW,201,0.0,0.0,58,0.00,,---,0.00,VWS V15.00,2013-12-19 17:45:00,
2013-12-19 12:50:00,31.6,18.6,29.91,SSW,201,3.6,3.6,58,0.00,,---,0.00,VWS V15.00,2013-12-19 17:50:00,
2013-12-19 12:55:00,31.8,18.7,29.91,SSW,201,0.0,0.0,58,0.00,,---,0.00,VWS V15.00,2013-12-19 17:55:00,
2013-12-19 13:00:00,31.6,18.6,29.91,SSW,201,3.1,3.1,58,0.00,,---,0.00,VWS V15.00,2013-12-19 18:00:00,
2013-12-19 13:05:00,31.8,18.7,29.91,SSW,200,0.0,4.9,58,0.00,,---,0.00,VWS V15.00,2013-12-19 18:05:00,
2013-12-19 13:10:00,31.6,18.6,29.91,SSW,201,4.0,4.0,58,0.00,,---,0.00,VWS V15.00,2013-12-19 18:10:00,
2013-12-19 13:15:00,31.6,18.6,29.91,SSW,208,0.0,0.0,58,0.00,,---,0.00,VWS V15.00,2013-12-19 18:15:00,
2013-12-19 13:20:00,31.8,18.7,29.91,SSW,213,4.0,4.9,58,0.00,,---,0.00,VWS V15.00,2013-12-19 18:20:00,
2013-12-19 13:25:00,31.8,18.7,29.91,SW,218,6.3,6.3,58,0.00,,---,0.00,VWS V15.00,2013-12-19 18:25:00,
2013-12-19 13:30:00,31.8,18.7,29.91,SSW,213,3.6,5.4,58,0.00,,---,0.00,VWS V15.00,2013-12-19 18:30:00,
2013-12-19 13:35:00,31.8,18.7,29.91,SW,214,3.1,3.1,58,0.00,,---,0.00,VWS V15.00,2013-12-19 18:35:00,
2013-12-19 13:40:00,32.0,18.9,29.91,SW,216,4.9,6.3,58,0.00,,---,0.00,VWS V15.00,2013-12-19 18:40:00,
2013-12-19 13:45:00,32.0,18.9,29.91,SW,234,5.8,6.7,58,0.00,,---,0.00,VWS V15.00,2013-12-19 18:45:00,
2013-12-19 13:50:00,31.8,18.7,29.91,West,261,0.0,3.6,58,0.00,,---,0.00,VWS V15.00,2013-12-19 18:50:00,
2013-12-19 13:55:00,31.8,19.1,29.91,SSW,202,4.0,4.0,59,0.00,,---,0.00,VWS V15.00,2013-12-19 18:55:00,
2013-12-19 14:00:00,31.6,19.0,29.91,SW,227,5.4,5.4,59,0.00,,---,0.00,VWS V15.00,2013-12-19 19:00:00,
2013-12-19 14:05:00,31.6,19.0,29.91,West,278,0.0,3.1,59,0.00,,---,0.00,VWS V15.00,2013-12-19 19:05:00,
2013-12-19 14:10:00,31.6,19.0,29.91,WSW,254,2.2,4.0,59,0.00,,---,0.00,VWS V15.00,2013-12-19 19:10:00,
2013-12-19 14:15:00,31.8,19.1,29.91,SW,214,2.2,2.7,59,0.00,,---,0.00,VWS V15.00,2013-12-19 19:15:00,
2013-12-19 14:20:00,31.8,18.7,29.91,SSW,213,2.7,5.4,58,0.00,,---,0.00,VWS V15.00,2013-12-19 19:20:00,
2013-12-19 14:25:00,31.8,18.7,29.91,SW,232,4.0,7.2,58,0.00,,---,0.00,VWS V15.00,2013-12-19 19:25:00,
2013-12-19 14:30:00,31.8,18.7,29.88,SSW,212,4.0,4.0,58,0.00,,---,0.00,VWS V15.00,2013-12-19 19:30:00,
2013-12-19 14:35:00,32.0,18.9,29.88,SSW,212,0.0,0.0,58,0.00,,---,0.00,VWS V15.00,2013-12-19 19:35:00,
2013-12-19 14:40:00,32.0,18.9,29.88,SW,219,4.0,4.0,58,0.00,,---,0.00,VWS V15.00,2013-12-19 19:40:00,
2013-12-19 14:45:00,31.8,19.1,29.91,SSW,206,5.4,5.8,59,0.00,,---,0.00,VWS V15.00,2013-12-19 19:45:00,
2013-12-19 14:50:00,31.6,19.0,29.91,SW,227,0.0,4.0,59,0.00,,---,0.00,VWS V15.00,2013-12-19 19:50:00,
2013-12-19 14:55:00,31.5,18.8,29.91,SW,236,3.6,3.6,59,0.00,,---,0.00,VWS V15.00,2013-12-19 19:55:00,
2013-12-19 15:01:00,31.3,19.0,29.94,SW,236,3.6,3.6,60,0.00,,---,0.00,VWS V15.00,2013-12-19 20:01:00,
2013-12-19 15:06:00,31.1,18.9,29.94,SW,236,0.0,0.0,60,0.00,,---,0.00,VWS V15.00,2013-12-19 20:06:00,
2013-12-19 15:11:00,31.1,18.9,29.94,SSW,211,3.6,3.6,60,0.00,,---,0.00,VWS V15.00,2013-12-19 20:11:00,
2013-12-19 15:16:00,31.1,18.9,29.94,SSW,213,3.1,3.6,60,0.00,,---,0.00,VWS V15.00,2013-12-19 20:16:00,
2013-12-19 15:21:00,31.1,18.9,29.94,SW,236,5.4,5.4,60,0.00,,---,0.00,VWS V15.00,2013-12-19 20:21:00,
2013-12-19 15:26:00,30.9,18.7,29.94,SW,226,0.0,2.2,60,0.00,,---,0.00,VWS V15.00,2013-12-19 20:26:00,
2013-12-19 15:31:00,30.7,18.9,29.94,SW,226,0.0,0.0,61,0.00,,---,0.00,VWS V15.00,2013-12-19 20:31:00,
2013-12-19 15:36:00,30.6,18.7,29.94,SW,226,0.0,0.0,61,0.00,,---,0.00,VWS V15.00,2013-12-19 20:36:00,
2013-12-19 15:41:00,30.2,18.8,29.94,SW,226,0.0,0.0,62,0.00,,---,0.00,VWS V15.00,2013-12-19 20:41:00,
2013-12-19 15:46:00,30.2,19.1,29.94,SSW,194,0.0,0.0,63,0.00,,---,0.00,VWS V15.00,2013-12-19 20:46:00,
2013-12-19 15:51:00,30.0,19.0,29.94,SSW,194,0.0,0.0,63,0.00,,---,0.00,VWS V15.00,2013-12-19 20:51:00,
2013-12-19 15:56:00,29.7,18.6,29.94,SSW,194,0.0,0.0,63,0.00,,---,0.00,VWS V15.00,2013-12-19 20:56:00,
2013-12-19 16:01:00,29.5,18.8,29.94,SSW,194,0.0,0.0,64,0.00,,---,0.00,VWS V15.00,2013-12-19 21:01:00,
2013-12-19 16:06:00,29.3,18.6,29.94,SSW,194,0.0,0.0,64,0.00,,---,0.00,VWS V15.00,2013-12-19 21:06:00,
2013-12-19 16:11:00,29.3,19.0,29.94,SSW,195,0.0,0.0,65,0.00,,---,0.00,VWS V15.00,2013-12-19 21:11:00,
2013-12-19 16:16:00,29.3,19.0,29.94,SSW,195,2.2,3.6,65,0.00,,---,0.00,VWS V15.00,2013-12-19 21:16:00,
2013-12-19 16:21:00,29.3,19.0,29.94,SW,217,3.1,3.1,65,0.00,,---,0.00,VWS V15.00,2013-12-19 21:21:00,
2013-12-19 16:26:00,29.1,19.2,29.94,SW,217,0.0,0.0,66,0.00,,---,0.00,VWS V15.00,2013-12-19 21:26:00,
2013-12-19 16:30:00,29.1,19.2,29.94,WSW,248,0.0,0.0,66,0.00,,---,0.00,VWS V15.00,2013-12-19 21:30:00,
2013-12-19 16:35:00,28.9,19.0,29.94,WSW,248,0.0,0.0,66,0.00,,---,0.00,VWS V15.00,2013-12-19 21:35:00,
2013-12-19 16:40:00,28.8,18.9,29.94,WSW,248,0.0,0.0,66,0.00,,---,0.00,VWS V15.00,2013-12-19 21:40:00,
2013-12-19 16:45:00,28.6,19.0,29.97,WSW,248,0.0,0.0,67,0.00,,---,0.00,VWS V15.00,2013-12-19 21:45:00,
2013-12-19 16:50:00,28.6,19.0,29.97,WSW,248,0.0,0.0,67,0.00,,---,0.00,VWS V15.00,2013-12-19 21:50:00,
2013-12-19 16:55:00,28.4,19.2,29.97,WSW,248,0.0,0.0,68,0.00,,---,0.00,VWS V15.00,2013-12-19 21:55:00,
2013-12-19 17:00:00,28.4,19.2,29.94,WSW,248,0.0,0.0,68,0.00,,---,0.00,VWS V15.00,2013-12-19 22:00:00,
2013-12-19 17:05:00,28.4,19.2,29.94,WSW,248,0.0,0.0,68,0.00,,---,0.00,VWS V15.00,2013-12-19 22:05:00,
2013-12-19 17:11:00,28.4,19.2,29.94,WSW,248,0.0,0.0,68,0.00,,---,0.00,VWS V15.00,2013-12-19 22:11:00,
2013-12-19 17:16:00,28.4,19.5,29.97,WSW,248,0.0,0.0,69,0.00,,---,0.00,VWS V15.00,2013-12-19 22:16:00,
2013-12-19 17:21:00,28.2,19.4,29.97,WSW,248,0.0,0.0,69,0.00,,---,0.00,VWS V15.00,2013-12-19 22:21:00,
2013-12-19 17:26:00,28.2,19.4,29.97,WSW,248,0.0,0.0,69,0.00,,---,0.00,VWS V15.00,2013-12-19 22:26:00,
2013-12-19 17:31:00,28.2,19.7,29.97,WSW,248,0.0,0.0,70,0.00,,---,0.00,VWS V15.00,2013-12-19 22:31:00,
2013-12-19 17:36:00,28.2,19.7,29.97,WSW,248,0.0,0.0,70,0.00,,---,0.00,VWS V15.00,2013-12-19 22:36:00,
2013-12-19 17:41:00,28.2,19.7,29.97,WSW,248,0.0,0.0,70,0.00,,---,0.00,VWS V15.00,2013-12-19 22:41:00,
2013-12-19 17:46:00,28.2,19.7,29.97,WSW,248,0.0,0.0,70,0.00,,---,0.00,VWS V15.00,2013-12-19 22:46:00,
2013-12-19 17:50:00,28.2,20.0,29.97,WSW,248,0.0,0.0,71,0.00,,---,0.00,VWS V15.00,2013-12-19 22:50:00,
2013-12-19 17:55:00,28.2,20.0,29.97,WSW,248,0.0,0.0,71,0.00,,---,0.00,VWS V15.00,2013-12-19 22:55:00,
2013-12-19 18:01:00,28.2,20.0,29.97,WSW,248,0.0,0.0,71,0.00,,---,0.00,VWS V15.00,2013-12-19 23:01:00,
2013-12-19 18:06:00,28.4,20.2,29.97,WSW,248,0.0,0.0,71,0.00,,---,0.00,VWS V15.00,2013-12-19 23:06:00,
2013-12-19 18:11:00,28.2,20.0,29.97,WSW,248,0.0,0.0,71,0.00,,---,0.00,VWS V15.00,2013-12-19 23:11:00,
2013-12-19 18:16:00,28.2,20.0,29.97,WSW,248,0.0,0.0,71,0.00,,---,0.00,VWS V15.00,2013-12-19 23:16:00,
2013-12-19 18:21:00,28.2,20.0,29.97,WSW,248,0.0,0.0,71,0.00,,---,0.00,VWS V15.00,2013-12-19 23:21:00,
2013-12-19 18:26:00,28.2,20.4,29.97,WSW,248,0.0,0.0,72,0.00,,---,0.00,VWS V15.00,2013-12-19 23:26:00,
2013-12-19 18:31:00,28.2,20.4,29.97,WSW,248,0.0,0.0,72,0.00,,---,0.00,VWS V15.00,2013-12-19 23:31:00,
2013-12-19 18:36:00,28.2,20.4,29.97,WSW,248,0.0,0.0,72,0.00,,---,0.00,VWS V15.00,2013-12-19 23:36:00,
2013-12-19 18:41:00,28.2,20.4,29.97,WSW,248,0.0,0.0,72,0.00,,---,0.00,VWS V15.00,2013-12-19 23:41:00,
2013-12-19 18:46:00,28.2,20.4,29.97,WSW,248,0.0,0.0,72,0.00,,---,0.00,VWS V15.00,2013-12-19 23:46:00,
2013-12-19 18:50:00,28.0,20.5,29.97,WSW,248,0.0,0.0,73,0.00,,---,0.00,VWS V15.00,2013-12-19 23:50:00,
2013-12-19 18:55:00,28.0,20.5,29.97,WSW,248,0.0,0.0,73,0.00,,---,0.00,VWS V15.00,2013-12-19 23:55:00,
2013-12-19 19:00:00,28.0,20.5,29.97,WSW,248,0.0,0.0,73,0.00,,---,0.00,VWS V15.00,2013-12-20 00:00:00,
2013-12-19 19:05:00,28.0,20.5,29.97,WSW,248,0.0,0.0,73,0.00,,---,0.00,VWS V15.00,2013-12-20 00:05:00,
2013-12-19 19:10:00,28.2,20.7,29.97,WSW,248,0.0,0.0,73,0.00,,---,0.00,VWS V15.00,2013-12-20 00:10:00,
2013-12-19 19:15:00,28.2,20.7,29.97,WSW,248,0.0,0.0,73,0.00,,---,0.00,VWS V15.00,2013-12-20 00:15:00,
2013-12-19 19:20:00,28.2,21.0,29.97,WSW,248,0.0,0.0,74,0.00,,---,0.00,VWS V15.00,2013-12-20 00:20:00,
2013-12-19 19:25:00,28.2,21.0,29.97,WSW,248,0.0,0.0,74,0.00,,---,0.00,VWS V15.00,2013-12-20 00:25:00,
2013-12-19 19:30:00,28.2,21.0,30.00,WSW,248,0.0,0.0,74,0.00,,---,0.00,VWS V15.00,2013-12-20 00:30:00,
2013-12-19 19:35:00,28.2,21.0,30.00,WSW,248,0.0,0.0,74,0.00,,---,0.00,VWS V15.00,2013-12-20 00:35:00,
2013-12-19 19:40:00,28.2,21.0,30.00,WSW,248,0.0,0.0,74,0.00,,---,0.00,VWS V15.00,2013-12-20 00:40:00,
2013-12-19 19:45:00,28.2,21.0,30.00,WSW,248,0.0,0.0,74,0.00,,---,0.00,VWS V15.00,2013-12-20 00:45:00,
2013-12-19 19:50:00,28.2,21.3,30.00,WSW,248,0.0,0.0,75,0.00,,---,0.00,VWS V15.00,2013-12-20 00:50:00,
2013-12-19 19:55:00,28.0,21.1,30.00,WSW,248,0.0,0.0,75,0.00,,---,0.00,VWS V15.00,2013-12-20 00:55:00,
2013-12-19 20:00:00,28.0,21.1,30.00,WSW,248,0.0,0.0,75,0.00,,---,0.00,VWS V15.00,2013-12-20 01:00:00,
2013-12-19 20:05:00,28.0,21.1,30.00,WSW,248,0.0,0.0,75,0.00,,---,0.00,VWS V15.00,2013-12-20 01:05:00,
2013-12-19 20:10:00,28.0,21.1,30.00,WSW,248,0.0,0.0,75,0.00,,---,0.00,VWS V15.00,2013-12-20 01:10:00,
2013-12-19 20:15:00,28.0,21.1,30.00,WSW,248,0.0,0.0,75,0.00,,---,0.00,VWS V15.00,2013-12-20 01:15:00,
2013-12-19 20:20:00,28.0,21.1,30.00,WSW,248,0.0,0.0,75,0.00,,---,0.00,VWS V15.00,2013-12-20 01:20:00,
2013-12-19 20:25:00,28.0,21.1,30.00,WSW,248,0.0,0.0,75,0.00,,---,0.00,VWS V15.00,2013-12-20 01:25:00,
2013-12-19 20:30:00,27.9,21.0,30.00,WSW,248,0.0,0.0,75,0.00,,---,0.00,VWS V15.00,2013-12-20 01:30:00,
2013-12-19 20:35:00,27.7,20.8,30.00,WSW,248,0.0,0.0,75,0.00,,---,0.00,VWS V15.00,2013-12-20 01:35:00,
2013-12-19 20:40:00,27.5,20.6,30.00,WSW,248,0.0,0.0,75,0.00,,---,0.00,VWS V15.00,2013-12-20 01:40:00,
2013-12-19 20:45:00,27.1,20.3,30.03,WSW,248,0.0,0.0,75,0.00,,---,0.00,VWS V15.00,2013-12-20 01:45:00,
2013-12-19 20:50:00,27.0,20.1,30.03,WSW,248,0.0,0.0,75,0.00,,---,0.00,VWS V15.00,2013-12-20 01:50:00,
2013-12-19 20:55:00,27.0,20.1,30.03,WSW,248,0.0,0.0,75,0.00,,---,0.00,VWS V15.00,2013-12-20 01:55:00,
2013-12-19 21:00:00,26.8,20.2,30.03,WSW,248,0.0,0.0,76,0.00,,---,0.00,VWS V15.00,2013-12-20 02:00:00,
2013-12-19 21:05:00,26.6,20.1,30.03,WSW,248,0.0,0.0,76,0.00,,---,0.00,VWS V15.00,2013-12-20 02:05:00,
2013-12-19 21:10:00,26.4,19.9,30.03,WSW,248,0.0,0.0,76,0.00,,---,0.00,VWS V15.00,2013-12-20 02:10:00,
2013-12-19 21:15:00,26.4,20.2,30.03,WSW,248,2.7,2.7,77,0.00,,---,0.00,VWS V15.00,2013-12-20 02:15:00,
2013-12-19 21:20:00,26.8,20.2,30.03,WSW,248,0.0,0.0,76,0.00,,---,0.00,VWS V15.00,2013-12-20 02:20:00,
2013-12-19 21:25:00,26.8,20.2,30.03,WSW,248,0.0,2.7,76,0.00,,---,0.00,VWS V15.00,2013-12-20 02:25:00,
2013-12-19 21:30:00,26.8,20.2,30.03,WSW,248,2.7,3.1,76,0.00,,---,0.00,VWS V15.00,2013-12-20 02:30:00,
2013-12-19 21:35:00,26.8,20.2,30.03,WSW,248,2.7,3.1,76,0.00,,---,0.00,VWS V15.00,2013-12-20 02:35:00,
2013-12-19 21:40:00,26.8,19.9,30.03,WSW,248,0.0,0.0,75,0.00,,---,0.00,VWS V15.00,2013-12-20 02:40:00,
2013-12-19 21:45:00,26.8,19.9,30.03,WSW,248,0.0,0.0,75,0.00,,---,0.00,VWS V15.00,2013-12-20 02:45:00,
2013-12-19 21:50:00,26.8,19.9,30.03,WSW,248,0.0,0.0,75,0.00,,---,0.00,VWS V15.00,2013-12-20 02:50:00,
2013-12-19 21:55:00,26.6,19.8,30.03,WSW,248,0.0,0.0,75,0.00,,---,0.00,VWS V15.00,2013-12-20 02:55:00,
2013-12-19 22:00:00,26.4,19.6,30.06,WSW,248,0.0,0.0,75,0.00,,---,0.00,VWS V15.00,2013-12-20 03:00:00,
2013-12-19 22:05:00,26.4,19.6,30.06,WSW,248,0.0,0.0,75,0.00,,---,0.00,VWS V15.00,2013-12-20 03:05:00,
2013-12-19 22:10:00,26.4,19.6,30.06,WSW,248,0.0,0.0,75,0.00,,---,0.00,VWS V15.00,2013-12-20 03:10:00,
2013-12-19 22:15:00,26.2,19.4,30.06,WSW,248,0.0,0.0,75,0.00,,---,0.00,VWS V15.00,2013-12-20 03:15:00,
2013-12-19 22:20:00,26.1,19.5,30.06,WSW,248,0.0,0.0,76,0.00,,---,0.00,VWS V15.00,2013-12-20 03:20:00,
2013-12-19 22:25:00,26.1,19.5,30.06,WSW,248,0.0,0.0,76,0.00,,---,0.00,VWS V15.00,2013-12-20 03:25:00,
2013-12-19 22:30:00,25.9,19.4,30.03,WSW,248,0.0,0.0,76,0.00,,---,0.00,VWS V15.00,2013-12-20 03:30:00,
2013-12-19 22:35:00,25.5,19.0,30.03,WSW,248,0.0,0.0,76,0.00,,---,0.00,VWS V15.00,2013-12-20 03:35:00,
2013-12-19 22:40:00,25.2,18.7,30.03,WSW,248,0.0,0.0,76,0.00,,---,0.00,VWS V15.00,2013-12-20 03:40:00,
2013-12-19 22:45:00,25.0,18.5,30.06,WSW,248,0.0,0.0,76,0.00,,---,0.00,VWS V15.00,2013-12-20 03:45:00,
2013-12-19 22:50:00,25.0,18.5,30.06,WSW,248,0.0,0.0,76,0.00,,---,0.00,VWS V15.00,2013-12-20 03:50:00,
2013-12-19 22:56:00,25.0,18.5,30.06,WSW,248,0.0,0.0,76,0.00,,---,0.00,VWS V15.00,2013-12-20 03:56:00,
2013-12-19 23:01:00,25.0,18.8,30.06,WSW,248,0.0,0.0,77,0.00,,---,0.00,VWS V15.00,2013-12-20 04:01:00,
2013-12-19 23:06:00,24.8,18.6,30.06,WSW,248,0.0,0.0,77,0.00,,---,0.00,VWS V15.00,2013-12-20 04:06:00,
2013-12-19 23:11:00,25.0,19.1,30.06,WSW,248,0.0,0.0,78,0.00,,---,0.00,VWS V15.00,2013-12-20 04:11:00,
2013-12-19 23:16:00,25.0,19.1,30.06,WSW,248,0.0,0.0,78,0.00,,---,0.00,VWS V15.00,2013-12-20 04:16:00,
2013-12-19 23:21:00,25.0,19.1,30.06,WSW,248,0.0,0.0,78,0.00,,---,0.00,VWS V15.00,2013-12-20 04:21:00,
2013-12-19 23:26:00,25.2,19.6,30.06,WSW,248,0.0,0.0,79,0.00,,---,0.00,VWS V15.00,2013-12-20 04:26:00,
2013-12-19 23:31:00,25.2,19.6,30.06,WSW,248,0.0,0.0,79,0.00,,---,0.00,VWS V15.00,2013-12-20 04:31:00,
2013-12-19 23:36:00,25.3,19.8,30.06,WSW,248,0.0,0.0,79,0.00,,---,0.00,VWS V15.00,2013-12-20 04:36:00,
2013-12-19 23:41:00,25.5,20.2,30.06,WSW,248,0.0,0.0,80,0.00,,---,0.00,VWS V15.00,2013-12-20 04:41:00,
2013-12-19 23:46:00,25.7,20.4,30.06,WSW,248,0.0,0.0,80,0.00,,---,0.00,VWS V15.00,2013-12-20 04:46:00,
2013-12-19 23:51:00,25.7,20.4,30.06,WSW,248,0.0,0.0,80,0.00,,---,0.00,VWS V15.00,2013-12-20 04:51:00,
2013-12-19 23:56:00,25.7,20.4,30.06,WSW,248,0.0,0.0,80,0.00,,---,0.00,VWS V15.00,2013-12-20 04:56:00,